Regional Weather Roundup
Issued by NWS State College, PA

Home | Current Version | Previous Version | Graphics & Text | Print | Product List | Glossary On
Versions: 1 2 3 4 5 6 7 8 9 10 11 12 13 14 15 16 17 18 19 20 21 22 23 24 25 26 27 28 29 30 31 32 33 34 35 36 37 38 39 40 41 42 43 44 45 46 47 48 49 50
000
ASUS41 KCTP 260310
RWRCTP

REGIONAL WEATHER ROUNDUP
NATIONAL WEATHER SERVICE STATE COLLEGE PA
1100 PM EDT MON JUL 25 2016

Note: "fair" indicates few or no clouds below 12,000 feet with no
significant weather and/or obstructions to visibility.

* = STATION THAT DOES NOT REPORT PRECIPITATION /E.G. RAIN...SNOW...ETC/
    THUNDER OR FOG.

PAZ002>004-007>009-013>016-020>023-029>032-260400-
WESTERN PENNSYLVANIA

CITY           SKY/WX    TMP DP  RH WIND       PRES   REMARKS
ERIE           PTCLDY    76  68  76 SW5       29.94F
MEADVILLE      CLEAR     72  64  76 W5        29.99S
FRANKLIN*      CLEAR     70  64  83 W5        30.01F
NEW CASTLE     FAIR      72  69  90 CALM      29.99S
BEAVER COUNTY  NOT AVBL
BUTLER*        PTCLDY    75  66  73 CALM      30.01S
PITTSBURGH INT PTCLDY    78  70  76 S7        29.98S
PITTSBURGH     PTCLDY    77  69  76 SW9       29.98S
INDIANA*       CLEAR     75  72  88 SW8       30.02S
LATROBE        PTCLDY    73  73 100 SW6       30.00S
WASHINGTON CO* PTCLDY    73  70  88 SW3       30.00S
$$

PAZ004>006-010>012-017>019-024>028-033>037-041-042-045-046-049>053-260400-
CENTRAL PENNSYLVANIA

CITY           SKY/WX    TMP DP  RH WIND       PRES   REMARKS
BRADFORD       CLEAR     67  64  90 CALM      30.01F
DUBOIS         CLEAR     73  66  78 VRB3      29.99S
CLEARFIELD     CLEAR     73  70  90 CALM      29.99S
JOHNSTOWN      CLOUDY    72  67  84 W6        30.03S
ALTOONA        CLEAR     73  67  81 S3        30.00R
STATE COLLEGE  PTCLDY    74  71  89 CALM      29.97S
WILLIAMSPORT   CLOUDY    71  69  93 CALM      29.93R FOG
SELINSGROVE    CLEAR     70  70 100 CALM      29.94S
FT INDIANTOWN  PTCLDY    69  69  98 VRB2      29.94S
CAPITAL CITY   PTCLDY    75  70  84 CALM      29.94R
HARRISBURG     MOCLDY    73  73 100 CALM      29.92S
YORK           CLOUDY    73  72  96 CALM      29.94S
$$

PAZ038>040-043-044-047-048-054-055-060>062-067>071-260400-
EASTERN PENNSYLVANIA

CITY           SKY/WX    TMP DP  RH WIND       PRES   REMARKS
SCRANTON       CLEAR     70  68  93 SW7       29.94S
MOUNT POCONO   CLEAR     66  64  93 W9        29.97S
ALLENTOWN      PTCLDY    71  68  90 W3        29.93R
QUAKERTOWN*    CLOUDY    72  72 100 CALM      29.94S
READING        PTCLDY    71  68  90 CALM      29.92S
LANCASTER      MOCLDY    71  70  96 SE5       29.93F
COATESVILLE    CLOUDY    72  70  94 CALM      29.96S
POTTSTOWN      PTCLDY    71  70  96 CALM      29.94F
BLUE BELL      CLOUDY    72  72 100 CALM      29.92F
DOYLESTOWN     PTCLDY    71  71 100 S5        29.92S
WILLOW GROVE   NOT AVBL
NORTH PHILA    CLOUDY    76  74  93 CALM      29.93F
PHILADELPHIA   CLOUDY    75  72  90 S9        29.92F
$$




USA.gov is the U.S. government's official web portal to all federal, state and local government web resources and services.